This is the latest recevied weather packets stored in our database for station/object WA9SDJ-13. If no packets are shown the sender has not sent any weather packets the latest 10 day(s).
| Time | Temp. | Humidity | Pressure | Rain* | Wind** | Luminosity | Snow |
|---|---|---|---|---|---|---|---|
| 1777967282 | 13.89° C | 86% | 1006.2 hPa | 6.6 mm | - | 0 W/m² | - |
| 1777967223 | 13.89° C | 86% | 1006.2 hPa | 6.6 mm | - | 0 W/m² | - |
| 1777967161 | 13.89° C | 86% | 1006.2 hPa | 6.6 mm | - | 0 W/m² | - |
| 1777967102 | 13.89° C | 86% | 1006.3 hPa | 6.6 mm | - | 0 W/m² | - |
| 1777967042 | 13.89° C | 86% | 1006.4 hPa | 6.86 mm | - | 0 W/m² | - |
| 1777966983 | 13.89° C | 87% | 1006.5 hPa | 6.86 mm | - | 0 W/m² | - |
| 1777966922 | 13.89° C | 87% | 1006.4 hPa | 7.37 mm | - | 0 W/m² | - |
| 1777966862 | 13.89° C | 87% | 1006.4 hPa | 7.62 mm | - | 0 W/m² | - |
| 1777966802 | 13.89° C | 87% | 1006.4 hPa | 7.87 mm | - | 0 W/m² | - |
| 1777966743 | 13.89° C | 87% | 1006.2 hPa | 7.62 mm | - | 0 W/m² | - |
| 1777966682 | 13.89° C | 87% | 1006.2 hPa | 7.87 mm | - | 0 W/m² | - |
| 1777966622 | 13.89° C | 87% | 1006.2 hPa | 8.13 mm | - | 0 W/m² | - |
| 1777966562 | 13.89° C | 87% | 1006.2 hPa | 7.87 mm | - | 0 W/m² | - |
| 1777966503 | 13.89° C | 87% | 1006.2 hPa | 8.13 mm | - | 0 W/m² | - |
| 1777966442 | 13.89° C | 87% | 1006.1 hPa | 8.13 mm | - | 0 W/m² | - |
| 1777966382 | 13.89° C | 87% | 1006.2 hPa | 8.38 mm | - | 0 W/m² | - |
| 1777966323 | 13.89° C | 87% | 1006.3 hPa | 8.38 mm | - | 0 W/m² | - |
| 1777966262 | 13.89° C | 86% | 1006.4 hPa | 8.38 mm | - | 0 W/m² | - |
| 1777966202 | 13.89° C | 86% | 1006.4 hPa | 8.38 mm | - | 0 W/m² | - |
| 1777966142 | 13.89° C | 86% | 1006.4 hPa | 8.38 mm | - | 0 W/m² | - |
| 1777966082 | 13.89° C | 86% | 1006.6 hPa | 8.64 mm | - | 0 W/m² | - |
| 1777966022 | 13.89° C | 86% | 1006.6 hPa | 8.89 mm | - | 0 W/m² | - |
| 1777965962 | 13.89° C | 86% | 1006.6 hPa | 9.4 mm | - | 0 W/m² | - |
| 1777965902 | 13.89° C | 86% | 1006.6 hPa | 9.4 mm | - | 0 W/m² | - |
| 1777965842 | 13.89° C | 86% | 1006.6 hPa | 9.91 mm | - | 0 W/m² | - |
* Rain latest hour (hover to see other rain measurements)
** Current wind speed in m/s (hover to see current wind gust speed)